Regional Weather Roundup
Issued by NWS

Home | Current Version | Previous Version | Graphics & Text | Print | Product List | Glossary Off
Versions: 1 2 3 4 5 6 7 8 9 10 11 12 13 14 15 16 17 18 19 20 21 22 23 24 25 26 27 28 29 30 31 32 33 34 35 36 37 38 39 40 41 42 43 44 45 46 47 48 49 50

000
ASUS43 KFSD 022202
RWRSD

WEATHER ROUNDUP FOR SOUTH DAKOTA
NATIONAL WEATHER SERVICE SIOUX FALLS SD
500 PM CDT TUE SEP 02 2014

NOTE: "FAIR" INDICATES FEW OR NO CLOUDS BELOW 12,000 FEET WITH NO
SIGNIFICANT WEATHER AND/OR OBSTRUCTIONS TO VISIBILITY.


SDZ001>005-009-010-012>017-022300-
NORTHWEST AND NORTH CENTRAL SOUTH DAKOTA

CITY           SKY/WX    TMP DP  RH WIND       PRES   REMARKS
BUFFALO          N/A     76  43  30 NW8       29.78F
FAITH            N/A     80  46  30 W9        29.82F
MOBRIDGE       MOSUNNY   83  49  30 SW13      29.76F
$$

SDZ012>016-024>037-041>051-057-063-072>074-022300-
SOUTHWEST AND SOUTH CENTRAL SOUTH DAKOTA

CITY           SKY/WX    TMP DP  RH WIND       PRES   REMARKS
RAPID CTY ARPT SUNNY     81  48  31 E9        29.85F
PIERRE         MOSUNNY   84  46  26 SW14      29.80F
CUSTER         MOSUNNY   75  27  17 VRB7G17   29.98F
ELLSWORTH AFB  SUNNY     80  48  31 SE3       29.85F
PHILIP         MOSUNNY   84  47  27 W7        29.80F
PINE RIDGE     SUNNY     81  43  26 VRB3      29.87F
WINNER         FAIR      83  48  29 S13G21    29.86F
$$

SDZ004>011-016>023-039-040-022300-
NORTHEAST SOUTH DAKOTA

CITY           SKY/WX    TMP DP  RH WIND       PRES   REMARKS
ABERDEEN       SUNNY     79  50  36 SW12      29.80F
WATERTOWN      MOSUNNY   75  54  47 SW17      29.87F
SISSETON         N/A     79  52  38 W16G24    29.80F
$$

SDZ017-020-022-023-036>040-048>070-022300-
SOUTHEAST SOUTH DAKOTA

CITY           SKY/WX    TMP DP  RH WIND       PRES   REMARKS
SIOUX FALLS    MOSUNNY   75  56  51 SW9       29.92F
HURON          SUNNY     79  50  36 S12       29.85F
CHAMBERLAIN    SUNNY     80  55  41 S9        29.86F
MITCHELL       SUNNY     78  55  44 S10G20    29.89F
YANKTON        SUNNY     77  57  50 S12       29.92S
$$

ABBREVIATIONS USED IN REMARKS
   TC - TEMPERATURE IN CELSIUS
  WCI - WIND CHILL INDEX
   HX - HEAT INDEX
  VSB - VISIBILITY



USA.gov is the U.S. government's official web portal to all federal, state and local government web resources and services.